Back to catalog

FENGYUN 1C DEB

AliveLEO
NORAD 41006·DEBRIS·🇨🇳 China

Launched May 10, 1999 from Taiyuan Satellite Launch Center

Loading…

Next Passes (next 24 hours)

TLE

AgingSource: Space-Track

Epoch: Sep 9, 2026, 16:33 UTC

1 41006U 99025EXL 26252.68989380  .00002467  00000-0  19006-2 0  9991
2 41006 102.3629 214.4636 0182642  85.0485 277.1483 13.86917267612433

Track FENGYUN 1C DEB in real time with AllMySat

Download on the App Store